CW3410 Weather Reports


Display with metric or nautical units.
time (UTC)temp
F
wind
direction
speed
MPH
gust
MPH
rain 1hr
in
rain 24hr
in
rain mn
in
humidity
%
barometer
mb
20260504160229 76 0 0.0 0.0 0.00 0.00 0.00 28 1003.2
20260504151139 70 0 0.0 0.0 0.00 0.00 0.00 38 1003.5
20260504150638 70 0 0.0 0.0 0.00 0.00 0.00 37 1003.6
20260504150138 70 0 0.0 0.0 0.00 0.00 0.00 40 1003.5
20260504141020 63 0 0.0 0.0 0.00 0.00 0.00 48 1003.7
20260504140519 62 0 0.0 0.0 0.00 0.00 0.00 51 1003.6
20260504140240 61 0 0.0 0.0 0.00 0.00 0.00 53 1003.6
20260504130401 49 0 0.0 0.0 0.00 0.00 0.00 71 1003.1
20260504130112 49 0 0.0 0.0 0.00 0.00 0.00 72 1003.1
20260504110439 46 0 0.0 0.0 0.00 0.00 0.00 71 1002.3
20260504100250 47 0 0.0 0.0 0.00 0.00 0.00 72 1002.2
20260504081927 53 0 0.0 0.0 0.00 0.00 0.00 61 1003.5
20260504081429 53 0 0.0 0.0 0.00 0.00 0.00 60 1003.5
20260504080921 54 0 0.0 0.0 0.00 0.00 0.00 58 1003.4
20260504080409 55 0 0.0 0.0 0.00 0.00 0.00 57 1003.4
20260504070332 56 0 0.0 0.0 0.00 0.00 0.00 51 1004.7
20260504060244 59 0 0.0 0.0 0.00 0.00 0.00 46 1005.7
20260504050736 60 0 0.0 0.0 0.00 0.00 0.00 44 1006.2
20260504050238 60 0 0.0 0.0 0.00 0.00 0.00 44 1006.2
20260504045740 60 0 0.0 0.0 0.00 0.00 0.00 43 1006.3
20260504045455 60 0 0.0 0.0 0.00 0.00 0.00 43 1006.3
20260504045210 60 0 0.0 0.0 0.00 0.00 0.00 43 1006.4
20260504044221 60 0 0.0 0.0 0.00 0.00 0.00 43 1006.4
20260504043708 60 0 0.0 0.0 0.00 0.00 0.00 43 1006.4
20260504043209 60 0 0.0 0.0 0.00 0.00 0.00 43 1006.5
20260504042702 61 0 0.0 0.0 0.00 0.00 0.00 43 1006.6
20260504042156 61 0 0.0 0.0 0.00 0.00 0.00 42 1006.5
20260504041651 61 0 0.0 0.0 0.00 0.00 0.00 42 1006.7
20260504041138 62 0 0.0 0.0 0.00 0.00 0.00 42 1006.8
20260504040639 62 0 0.0 0.0 0.00 0.00 0.00 41 1006.9
20260504040355 62 0 0.0 0.0 0.00 0.00 0.00 40 1006.8
20260504035627 63 0 0.0 0.0 0.00 0.00 0.00 39 1006.9
20260504035530 64 0 0.0 0.0 0.00 0.00 0.00 38 1007.0
20260504035203 64 0 0.0 0.0 0.00 0.00 0.00 38 1007.0
20260504034109 64 0 0.0 0.0 0.00 0.00 0.00 37 1007.0
20260504033607 65 0 0.0 0.0 0.00 0.00 0.00 38 1007.0
20260504033056 65 0 0.0 0.0 0.00 0.00 0.00 37 1007.0
20260504032551 65 0 0.0 0.0 0.00 0.00 0.00 37 1006.8
20260504032038 65 0 0.0 0.0 0.00 0.00 0.00 36 1006.7
20260504031539 65 0 0.0 0.0 0.00 0.00 0.00 36 1006.8
20260504031033 66 0 0.0 0.0 0.00 0.00 0.00 36 1006.8
20260504030527 66 0 0.0 0.0 0.00 0.00 0.00 36 1006.6
20260504030021 66 0 0.0 0.0 0.00 0.00 0.00 35 1006.5
20260504025508 66 0 0.0 0.0 0.00 0.00 0.00 35 1006.6
20260504025009 66 0 0.0 0.0 0.00 0.00 0.00 35 1006.7
20260504024502 66 0 0.0 0.0 0.00 0.00 0.00 35 1006.7
20260504024441 66 0 0.0 0.0 0.00 0.00 0.00 35 1006.7
20260504023451 66 0 0.0 0.0 0.00 0.00 0.00 34 1006.5
20260504022938 67 0 0.0 0.0 0.00 0.00 0.00 34 1006.5
20260504022439 67 0 0.0 0.0 0.00 0.00 0.00 34 1006.6
20260504022154 67 0 0.0 0.0 0.00 0.00 0.00 34 1006.7
20260504021427 67 0 0.0 0.0 0.00 0.00 0.00 34 1006.6
20260504020629 68 0 0.0 0.0 0.00 0.00 0.00 32 1006.6
20260504015910 68 0 0.0 0.0 0.00 0.00 0.00 32 1006.6
20260504015620 69 0 0.0 0.0 0.00 0.00 0.00 32 1006.7
20260504014858 69 0 0.0 0.0 0.00 0.00 0.00 31 1006.7
20260504014350 70 0 0.0 0.0 0.00 0.00 0.00 31 1006.7
20260504013838 70 0 0.0 0.0 0.00 0.00 0.00 31 1006.7
20260504013339 70 0 0.0 0.0 0.00 0.00 0.00 29 1006.7
20260504012834 71 0 0.0 0.0 0.00 0.00 0.00 29 1006.7
20260504012327 72 0 0.0 0.0 0.00 0.00 0.00 28 1006.6
20260504011822 72 0 0.0 0.0 0.00 0.00 0.00 28 1006.6
20260504011308 73 0 0.0 0.0 0.00 0.00 0.00 28 1006.5
20260504010809 74 0 0.0 0.0 0.00 0.00 0.00 27 1006.6
20260504010303 74 0 0.0 0.0 0.00 0.00 0.00 27 1006.6
20260504005758 75 0 0.0 0.0 0.00 0.00 0.00 26 1006.5
20260504005251 75 0 0.0 0.0 0.00 0.00 0.00 25 1006.5
20260504004739 75 0 0.0 0.0 0.00 0.00 0.00 25 1006.6
20260504004238 75 0 0.0 0.0 0.00 0.00 0.00 25 1006.6
20260504003734 75 0 0.0 0.0 0.00 0.00 0.00 25 1006.7
20260504003227 75 0 0.0 0.0 0.00 0.00 0.00 25 1006.7
20260504002722 76 0 0.0 0.0 0.00 0.00 0.00 25 1006.7
20260504002207 76 0 0.0 0.0 0.00 0.00 0.00 24 1006.7
20260504001710 76 0 0.0 0.0 0.00 0.00 0.00 24 1006.8
20260504001203 76 0 0.0 0.0 0.00 0.00 0.00 24 1006.7
20260504000922 77 0 0.0 0.0 0.00 0.00 0.00 24 1006.8
20260504000416 77 0 0.0 0.0 0.00 0.00 0.00 24 1006.9
20260503235641 77 0 0.0 0.0 0.00 0.00 0.00 23 1007.0
20260503235138 77 0 0.0 0.0 0.00 0.00 0.00 23 1007.0
20260503234634 77 0 0.0 0.0 0.00 0.00 0.00 24 1007.0
20260503234127 77 0 0.0 0.0 0.00 0.00 0.00 23 1007.0
20260503233621 78 0 0.0 0.0 0.00 0.00 0.00 23 1007.0
20260503233329 78 0 0.0 0.0 0.00 0.00 0.00 23 1007.1
20260503232610 78 0 0.0 0.0 0.00 0.00 0.00 23 1007.0
20260503232103 78 0 0.0 0.0 0.00 0.00 0.00 22 1007.0
20260503231558 79 0 0.0 0.0 0.00 0.00 0.00 22 1007.0
20260503231533 80 0 0.0 0.0 0.00 0.00 0.00 21 1007.1
20260503230539 80 0 0.0 0.0 0.00 0.00 0.00 21 1007.1
20260503230039 81 0 0.0 0.0 0.00 0.00 0.00 20 1007.3
20260503225534 81 0 0.0 0.0 0.00 0.00 0.00 19 1007.3
20260503225027 81 0 0.0 0.0 0.00 0.00 0.00 20 1007.3
20260503224522 82 0 0.0 0.0 0.00 0.00 0.00 19 1007.3
20260503224007 81 0 0.0 0.0 0.00 0.00 0.00 20 1007.3
20260503223952 81 0 0.0 0.0 0.00 0.00 0.00 19 1007.5
20260503223002 81 0 0.0 0.0 0.00 0.00 0.00 19 1007.6
20260503222458 81 0 0.0 0.0 0.00 0.00 0.00 19 1007.6
20260503221951 81 0 0.0 0.0 0.00 0.00 0.00 19 1007.7
20260503221439 81 0 0.0 0.0 0.00 0.00 0.00 20 1007.8
20260503220939 81 0 0.0 0.0 0.00 0.00 0.00 19 1007.8
20260503220434 81 0 0.0 0.0 0.00 0.00 0.00 18 1007.9
20260503215926 82 0 0.0 0.0 0.00 0.00 0.00 19 1008.0
20260503215421 82 0 0.0 0.0 0.00 0.00 0.00 19 1008.0
20260503215132 82 0 0.0 0.0 0.00 0.00 0.00 19 1008.1
20260503214409 82 0 0.0 0.0 0.00 0.00 0.00 20 1008.2
20260503214123 81 0 0.0 0.0 0.00 0.00 0.00 19 1008.2
20260503213657 82 0 0.0 0.0 0.00 0.00 0.00 19 1008.4
20260503213555 82 0 0.0 0.0 0.00 0.00 0.00 18 1008.5
20260503212338 82 0 0.0 0.0 0.00 0.00 0.00 20 1008.6
20260503211838 81 0 0.0 0.0 0.00 0.00 0.00 19 1008.6
20260503211333 82 0 0.0 0.0 0.00 0.00 0.00 18 1008.6
20260503210827 82 0 0.0 0.0 0.00 0.00 0.00 19 1008.7
20260503210320 82 0 0.0 0.0 0.00 0.00 0.00 19 1008.8
20260503210028 83 0 0.0 0.0 0.00 0.00 0.00 19 1008.8
20260503205309 82 0 0.0 0.0 0.00 0.00 0.00 19 1009.0
20260503204803 81 0 0.0 0.0 0.00 0.00 0.00 20 1009.1
20260503204257 81 0 0.0 0.0 0.00 0.00 0.00 20 1009.2
20260503203751 80 0 0.0 0.0 0.00 0.00 0.00 20 1009.4
20260503203238 81 0 0.0 0.0 0.00 0.00 0.00 20 1009.6
20260503202738 81 0 0.0 0.0 0.00 0.00 0.00 20 1009.6
20260503202450 81 0 0.0 0.0 0.00 0.00 0.00 20 1009.7
20260503201727 80 0 0.0 0.0 0.00 0.00 0.00 20 1009.7
20260503201220 80 0 0.0 0.0 0.00 0.00 0.00 20 1009.8
20260503200709 80 0 0.0 0.0 0.00 0.00 0.00 20 1009.9
20260503200209 80 0 0.0 0.0 0.00 0.00 0.00 21 1010.0
20260503195922 80 0 0.0 0.0 0.00 0.00 0.00 21 1009.9
20260503195156 79 0 0.0 0.0 0.00 0.00 0.00 21 1009.9
20260503194651 79 0 0.0 0.0 0.00 0.00 0.00 22 1010.0
20260503194137 80 0 0.0 0.0 0.00 0.00 0.00 20 1010.0
20260503193639 80 0 0.0 0.0 0.00 0.00 0.00 22 1010.0
20260503193133 80 0 0.0 0.0 0.00 0.00 0.00 22 1010.1
20260503192627 80 0 0.0 0.0 0.00 0.00 0.00 22 1010.2
20260503192121 79 0 0.0 0.0 0.00 0.00 0.00 21 1010.3
20260503191616 79 0 0.0 0.0 0.00 0.00 0.00 23 1010.4
20260503191110 79 0 0.0 0.0 0.00 0.00 0.00 22 1010.5
20260503190826 79 0 0.0 0.0 0.00 0.00 0.00 22 1010.5
20260503190057 79 0 0.0 0.0 0.00 0.00 0.00 20 1010.5
20260503185551 78 0 0.0 0.0 0.00 0.00 0.00 24 1010.5
20260503185045 78 0 0.0 0.0 0.00 0.00 0.00 24 1010.7
20260503184540 77 0 0.0 0.0 0.00 0.00 0.00 22 1010.7
20260503184033 77 0 0.0 0.0 0.00 0.00 0.00 23 1010.8
20260503183528 78 0 0.0 0.0 0.00 0.00 0.00 22 1010.9
20260503183020 78 0 0.0 0.0 0.00 0.00 0.00 23 1011.0
20260503182515 77 0 0.0 0.0 0.00 0.00 0.00 23 1011.0
20260503182009 77 0 0.0 0.0 0.00 0.00 0.00 24 1011.1
20260503181505 77 0 0.0 0.0 0.00 0.00 0.00 24 1011.2
20260503180956 77 0 0.0 0.0 0.00 0.00 0.00 23 1011.3
20260503180452 77 0 0.0 0.0 0.00 0.00 0.00 24 1011.5
20260503175937 77 0 0.0 0.0 0.00 0.00 0.00 24 1011.6
20260503175440 76 0 0.0 0.0 0.00 0.00 0.00 25 1011.6
20260503174932 76 0 0.0 0.0 0.00 0.00 0.00 24 1011.7
20260503174434 76 0 0.0 0.0 0.00 0.00 0.00 24 1011.8
20260503173920 76 0 0.0 0.0 0.00 0.00 0.00 27 1011.9
20260503173637 76 0 0.0 0.0 0.00 0.00 0.00 27 1012.0
20260503172909 75 0 0.0 0.0 0.00 0.00 0.00 25 1012.1
20260503172404 75 0 0.0 0.0 0.00 0.00 0.00 25 1012.1
20260503172338 75 0 0.0 0.0 0.00 0.00 0.00 25 1012.4
20260503171352 75 0 0.0 0.0 0.00 0.00 0.00 25 1012.4
20260503170845 75 0 0.0 0.0 0.00 0.00 0.00 26 1012.4
20260503170339 74 0 0.0 0.0 0.00 0.00 0.00 25 1012.4